User: anonymous   Login
Location: ??????
(42.0089°N, 44.3281°E)
Time: 11:50:05
(UTC+00:00)
Language:

Cosmos 407 Rocket - Orbit

View from above orbital plane
View from above orbital plane
View from above satellite
View from above satellite

Ground track
Ground track

The orbit data is extracted from the following two-line orbital elements,

1 05175U 71035B   22017.67837919  .00000028  00000-0  17887-4 0  9991
2 05175  74.0492   5.8479 0029566 162.0990 198.1213 14.38071978655508
Epoch (UTC): 17 January 2022 16:16:51
Eccentricity: 0.0029566
inclination: 74.0492°
perigee height: 744 km
apogee height: 786 km
right ascension of ascending node: 5.8479°
argument of perigee: 162.0990°
revolutions per day: 14.38071978
mean anomaly at epoch: 198.1213°
orbit number at epoch: 65550

The dashed part of the orbit path shows where the satellite is in the earth's shadow,  

DLR